weather.gov     
National Weather Service

Weather Roundup
NWS Homepage
This page is being discontinued on March 12, 2014.
The same data is available at this site. Please update your bookmarks.
Thank you, and we apologize for the inconvenience.
Please send an email to SR-SRH.Webmaster@noaa.gov with any concerns.


Current Version
Previous Version:    01  02  03  04  05  06  07  08  09  10  11  12  13  14  15  16  17  18  19  20  21  22  23  24  25  26  27  28  29  30  
   31  32  33  34  35  36  37  38  39  40  41  42  43  44  45  46  47  48  49  50  51  52  53  54  55  56  57  58  59  60  
[Printable]
028
NZUS99 KSGF 220707
HRRSGF

HOURLY WEATHER
NATIONAL WEATHER SERVICE SPRINGFIELD MO
100 AM CST MON DEC 22 2014

......SGF CWA......

CITY           SKY/WX    TMP DP  RH WIND       PRES   REMARKS
SPRINGFIELD    CLOUDY    42  36  79 SE17      29.75F
JOPLIN         CLOUDY    43  40  89 SE9       29.72F FOG
WEST PLAINS    CLOUDY    40  33  76 E6        29.84F
ROLLA          CLOUDY    39  33  79 SE7       29.83F WCI  34
OSAGE BEACH    CLOUDY    43  34  70 S9        29.81F
BRANSON        CLOUDY    41  37  87 SE8       29.78F

......SURROUNDING SGF CWA......

CITY           SKY/WX    TMP DP  RH WIND       PRES   REMARKS
CHANUTE        CLOUDY    44  42  93 SE13      29.69F
PARSONS        CLOUDY    44  43  96 SE8       29.70F FOG
COFFEYVILLE    CLOUDY    44  43  96 SE10      29.69F FOG
EMPORIA        CLOUDY    42  41  96 SE13      29.66F FOG
GROVE OK       CLOUDY    46  46 100 SE7       29.73F
ROGERS AR      CLOUDY    43  42  97 SE9       29.75F
SILOAM SPRINGS CLOUDY    43  37  81 SE5       29.74F
HARRISON AR    CLOUDY    45  38  76 S13G20    29.78F
NEAR YELLVILLE CLOUDY    43  34  70 E5        29.80F

......KANSAS AND MISSOURI......

CITY           SKY/WX    TMP DP  RH WIND       PRES   REMARKS
KANSAS CTY INT CLOUDY    42  38  85 SE15      29.70F
DOWNTOWN KC    CLOUDY    44  37  76 SE9       29.72F
COLUMBIA       CLOUDY    41  34  76 SE12      29.83F
SEDALIA        CLOUDY    43  36  76 SE13      29.78F
ST JOSEPH      CLOUDY    43  39  86 SE10      29.70F
ST LOUIS       CLOUDY    43  31  62 SE10      29.90F
SPIRIT OF STL  CLOUDY    42  32  67 SE5       29.89F
KIRKSVILLE     CLOUDY    39  36  89 SE9       29.81F WCI  33
WICHITA        LGT RAIN  45  42  89 S12       29.61F FOG
TOPEKA         CLOUDY    45  41  86 S12       29.68F
OLATHE         CLOUDY    42  38  85 SE12      29.70F

......TENNESSEE......

CITY           SKY/WX    TMP DP  RH WIND       PRES   REMARKS
MEMPHIS        CLOUDY    48  42  80 SE13      29.89F
NASHVILLE      PTCLDY    42  39  89 S9        30.00F

......ARKANSAS.......

CITY           SKY/WX    TMP DP  RH WIND       PRES   REMARKS
FAYETTEVILLE   CLOUDY    44  42  93 SE7       29.74F
FT SMITH       CLOUDY    45  43  93 NE6       29.77F FOG
LITTLE ROCK    PTCLDY    42  36  79 CALM      29.86S

......OKLAHOMA.......

CITY           SKY/WX    TMP DP  RH WIND       PRES   REMARKS
TULSA          CLOUDY    47  44  90 SE12      29.69F
PONCA CITY     CLOUDY    46  44  93 SE14      29.63F FOG
MCALESTER      CLOUDY    49  44  83 SE9G17    29.70F
OKLAHOMA CITY  CLOUDY    48  45  89 S13       29.60F

......IOWA............

CITY           SKY/WX    TMP DP  RH WIND       PRES   REMARKS
DES MOINES     LGT RAIN  42  39  89 S15       29.73F FOG
QUAD CITIES    CLOUDY    35  31  85 SE12      29.88F WCI  27

......ILLINOIS........

CITY           SKY/WX    TMP DP  RH WIND       PRES   REMARKS
QUINCY         CLOUDY    39  33  79 SE10      29.87F WCI  32
CHICAGO        MOCLDY    32  27  81 S9        29.98F WCI  24





U.S. Dept. of Commerce
NOAA National Weather Service
1325 East West Highway
Silver Spring, MD 20910
E-mail: w-nws.webmaster@noaa.gov
Page last modified: May 16, 2007
NATIONAL WEATHER SERVICE: for Safety, for Work, for Fun - FOR LIFE